Location: Waco, TX
(31.5480°N, 97.1670°W)
Time: 10:58:50
(UTC-05:00)

ISS - Pass Details

Date: 04 January 2018
Orbit: 401 x 409 km, 51.6° (Epoch: 19 August)

Event Time Altitude Azimuth Distance (km) Brightness Sun altitude
Rises 04:25:13 0° 272° (W) 2,339 - -38.3°
Reaches altitude 10° 04:28:29 10° 307° (NW) 1,487 - -37.6°
Maximum altitude 04:29:44 12° 329° (NNW) 1,396 - -37.3°
Drops below altitude 10° 04:30:59 10° 351° (N) 1,495 - -37.1°
Sets 04:34:17 0° 26° (NNE) 2,368 - -36.4°
